Weather History for Port Isabel, TX

Change the Weather History Date:

Friday, April 19, 2013

  Actual Average Record
Temperature  
Mean Temperature 62 °F -  
Max Temperature 68 °F - - ()
Min Temperature 52 °F - - ()
Degree Days  
Heating Degree Days 4    
Growing Degree Days 12 (Base 50)    
Moisture  
Dew Point 44 °F    
Average Humidity 49    
Maximum Humidity 66    
Minimum Humidity 36    
Precipitation  
Precipitation 0.00 in - - ()
Sea Level Pressure  
Sea Level Pressure 30.18 in    
Wind  
Wind Speed 21 mph (NNE)    
Max Wind Speed 29 mph    
Max Gust Speed 37 mph    
Visibility 9 miles    
Events Rain    
T = Trace of Precipitation, MM = Missing Value Source: NWS Daily Summary

Daily Weather History Graph

Daily Weather History Graph

Search for Another Location

Airport:

Trip Planner

Search our weather history database for the weather conditions in past years. The results will help you decide how hot, cold, wet, or windy it might be!

Date:

Astronomy

Apr. 19, 2013 Rise Set
Actual Time 7:02 AM CDT 7:55 PM CDT
Civil Twilight 6:38 AM CDT 8:18 PM CDT
Nautical Twilight 6:10 AM CDT 8:46 PM CDT
Astronomical Twilight 5:41 AM CDT 9:15 PM CDT
Moon 2:15 PM CDT (4/19) 2:42 AM CDT (4/19)
Length of Visible Light 13h 40m
Length of Day
12h 53m
First Quarter, 62% of the Moon is Illuminated
Apr 19
First Quarter
Apr 25
Full
May 2
Last Quarter
May 9
New
May 17
First Quarter

Hourly Weather History & Observations

Time (CDT) Temp. Dew Point Humidity Pressure Visibility Wind Dir Wind Speed Gust Speed Precip Events Conditions
12:53 AM 64.9 °F 50.0 °F 58% 30.01 in 10.0 mi North 27.6 mph 36.8 mph 0.00 in Rain Light Rain
1:53 AM 66.0 °F 50.0 °F 56% 30.04 in 10.0 mi North 28.8 mph 35.7 mph 0.00 in Rain Light Rain
2:53 AM 64.9 °F 50.0 °F 58% 30.04 in 10.0 mi North 25.3 mph 34.5 mph 0.00 in Rain Light Rain
3:53 AM 64.9 °F 48.9 °F 56% 30.06 in 10.0 mi North 24.2 mph 36.8 mph 0.00 in Rain Light Rain
4:53 AM 64.0 °F 48.0 °F 56% 30.07 in 10.0 mi North 23.0 mph 34.5 mph 0.00 in Rain Light Rain
5:53 AM 64.0 °F 46.0 °F 52% 30.08 in 10.0 mi North 27.6 mph 36.8 mph 0.00 in Rain Light Rain
6:53 AM 63.0 °F 46.0 °F 54% 30.13 in 10.0 mi North 23.0 mph 32.2 mph 0.00 in Rain Light Rain
7:53 AM 63.0 °F 45.0 °F 52% 30.19 in 9.0 mi North 17.3 mph 29.9 mph 0.00 in Rain Light Rain
8:53 AM 63.0 °F 43.0 °F 48% 30.22 in 9.0 mi North 18.4 mph 27.6 mph 0.00 in Rain Light Rain
9:53 AM 64.0 °F 42.1 °F 45% 30.25 in 9.0 mi NNE 24.2 mph 28.8 mph 0.00 in Rain Light Rain
10:53 AM 64.9 °F 39.9 °F 40% 30.28 in 9.0 mi North 18.4 mph 28.8 mph 0.00 in Rain Light Rain
11:53 AM 64.9 °F 43.0 °F 45% 30.30 in 9.0 mi NNE 20.7 mph 28.8 mph 0.00 in Rain Light Rain
12:53 PM 64.9 °F 41.0 °F 42% 30.28 in 9.0 mi North 19.6 mph 26.5 mph 0.00 in Rain Light Rain
1:53 PM 66.9 °F 41.0 °F 39% 30.26 in 9.0 mi NNE 19.6 mph 26.5 mph 0.00 in Rain Light Rain
2:53 PM 66.0 °F 39.9 °F 38% 30.25 in 9.0 mi NNE 18.4 mph 26.5 mph 0.00 in Rain Light Rain
3:53 PM 68.0 °F 41.0 °F 37% 30.23 in 9.0 mi NNE 12.7 mph 24.2 mph 0.00 in Rain Light Rain
4:53 PM 68.0 °F 39.9 °F 36% 30.21 in 8.0 mi North 17.3 mph 23.0 mph 0.00 in   Clear
5:53 PM 66.9 °F 39.9 °F 37% 30.20 in 8.0 mi NE 12.7 mph 19.6 mph N/A   Clear
6:53 PM 66.0 °F 39.9 °F 38% 30.19 in 8.0 mi NE 10.4 mph - N/A   Clear
7:53 PM 63.0 °F 41.0 °F 45% 30.19 in 8.0 mi ENE 4.6 mph - N/A   Partly Cloudy
8:53 PM 60.1 °F 42.1 °F 51% 30.21 in 9.0 mi East 5.8 mph - N/A   Clear
9:53 PM 59.0 °F 43.0 °F 55% 30.22 in 9.0 mi East 4.6 mph - N/A   Clear
10:53 PM 55.9 °F 43.0 °F 62% 30.23 in 9.0 mi Calm Calm - N/A   Clear
11:53 PM 52.0 °F 41.0 °F 66% 30.23 in 10.0 mi Calm Calm - 0.00 in   Clear